Time,TemperatureF,DewpointF,PressureIn,WindDirection,WindDirectionDegrees,WindSpeedMPH,WindSpeedGustMPH,Humidity,HourlyPrecipIn,Conditions,Clouds,dailyrainin,SolarRadiationWatts/m^2,SoftwareType,DateUTC
2013-07-26 00:02:00,58.0,54.5,29.89,West,267,0.0,0.0,88,0.00,-RA,,0.00,0.0,WeatherDisplay:10.37,2013-07-26 05:02:00,
2013-07-26 00:07:00,58.0,54.5,29.90,West,267,0.0,0.0,88,0.00,-RA,,0.00,0.0,WeatherDisplay:10.37,2013-07-26 05:07:00,
2013-07-26 00:12:00,57.9,54.4,29.90,West,267,0.0,0.0,88,0.00,-RA,,0.00,0.0,WeatherDisplay:10.37,2013-07-26 05:12:00,
2013-07-26 00:17:00,57.9,54.4,29.89,West,267,0.0,0.0,88,0.00,-RA,,0.00,0.0,WeatherDisplay:10.37,2013-07-26 05:17:00,
2013-07-26 00:22:00,57.8,54.3,29.89,West,267,0.0,0.0,88,0.00,-RA,,0.00,0.0,WeatherDisplay:10.37,2013-07-26 05:22:00,
2013-07-26 00:27:00,57.7,54.2,29.89,West,267,0.0,0.0,88,0.00,-RA,,0.00,0.0,WeatherDisplay:10.37,2013-07-26 05:27:00,
2013-07-26 00:32:00,57.6,54.1,29.89,West,267,1.2,1.2,88,0.00,-RA,,0.00,0.0,WeatherDisplay:10.37,2013-07-26 05:32:00,
2013-07-26 00:37:00,57.6,54.1,29.89,West,272,0.0,0.3,88,0.00,-RA,,0.00,0.0,WeatherDisplay:10.37,2013-07-26 05:37:00,
2013-07-26 00:42:00,57.4,53.9,29.89,West,272,0.0,0.0,88,0.00,-RA,,0.00,0.0,WeatherDisplay:10.37,2013-07-26 05:42:00,
2013-07-26 00:47:00,57.3,53.8,29.90,West,272,0.0,0.0,88,0.00,-RA,,0.00,0.0,WeatherDisplay:10.37,2013-07-26 05:47:00,
2013-07-26 00:52:00,57.2,53.7,29.89,West,271,0.0,0.0,88,0.00,-RA,,0.00,0.0,WeatherDisplay:10.37,2013-07-26 05:52:00,
2013-07-26 00:57:00,57.1,53.6,29.89,West,271,3.5,0.0,88,0.00,-RA,,0.00,0.0,WeatherDisplay:10.37,2013-07-26 05:57:00,
2013-07-26 01:02:00,56.9,53.4,29.89,West,271,0.0,0.0,88,0.00,-RA,,0.00,0.0,WeatherDisplay:10.37,2013-07-26 06:02:00,
2013-07-26 01:07:00,56.7,53.2,29.89,West,271,0.0,0.0,88,0.00,-RA,,0.00,0.0,WeatherDisplay:10.37,2013-07-26 06:07:00,
2013-07-26 01:12:00,56.6,53.1,29.89,West,271,0.0,0.0,88,0.00,-RA,,0.00,0.0,WeatherDisplay:10.37,2013-07-26 06:12:00,
2013-07-26 01:17:00,56.4,52.9,29.89,West,271,0.0,0.0,88,0.00,-RA,,0.00,0.0,WeatherDisplay:10.37,2013-07-26 06:17:00,
2013-07-26 01:22:00,56.3,52.8,29.89,West,271,0.0,0.0,88,0.00,-RA,,0.00,0.0,WeatherDisplay:10.37,2013-07-26 06:22:00,
2013-07-26 01:27:00,56.1,52.6,29.89,West,271,0.0,0.0,88,0.00,-RA,,0.00,0.0,WeatherDisplay:10.37,2013-07-26 06:27:00,
2013-07-26 01:32:00,56.0,52.5,29.89,West,271,0.0,0.0,88,0.00,-RA,,0.00,0.0,WeatherDisplay:10.37,2013-07-26 06:32:00,
2013-07-26 01:37:00,55.9,52.4,29.89,West,271,0.0,0.0,88,0.00,-RA,,0.00,0.0,WeatherDisplay:10.37,2013-07-26 06:37:00,
2013-07-26 01:42:00,55.8,52.3,29.89,West,271,0.0,0.0,88,0.00,-RA,,0.00,0.0,WeatherDisplay:10.37,2013-07-26 06:42:00,
2013-07-26 01:48:00,55.7,52.5,29.89,West,271,0.0,0.0,89,0.00,-RA,,0.00,0.0,WeatherDisplay:10.37,2013-07-26 06:48:00,
2013-07-26 01:53:00,55.5,52.3,29.89,West,271,0.0,0.0,89,0.00,-RA,,0.00,0.0,WeatherDisplay:10.37,2013-07-26 06:53:00,
2013-07-26 01:58:00,55.4,52.2,29.89,West,271,0.0,0.0,89,0.00,-RA,,0.00,0.0,WeatherDisplay:10.37,2013-07-26 06:58:00,
2013-07-26 02:03:00,55.4,52.2,29.89,West,271,0.0,0.0,89,0.00,-RA,,0.00,0.0,WeatherDisplay:10.37,2013-07-26 07:03:00,
2013-07-26 02:08:00,55.3,52.1,29.89,West,271,0.0,0.0,89,0.00,-RA,,0.00,0.0,WeatherDisplay:10.37,2013-07-26 07:08:00,
2013-07-26 02:13:00,55.2,52.0,29.89,West,271,0.0,0.0,89,0.00,-RA,,0.00,0.0,WeatherDisplay:10.37,2013-07-26 07:13:00,
2013-07-26 02:18:00,55.1,52.2,29.89,West,271,0.0,0.0,90,0.00,-RA,,0.00,0.0,WeatherDisplay:10.37,2013-07-26 07:18:00,
2013-07-26 02:23:00,55.1,52.2,29.89,West,271,3.5,3.5,90,0.00,-RA,,0.00,0.0,WeatherDisplay:10.37,2013-07-26 07:23:00,
2013-07-26 02:28:00,55.1,52.2,29.89,West,271,0.0,0.0,90,0.00,-RA,,0.00,0.0,WeatherDisplay:10.37,2013-07-26 07:28:00,
2013-07-26 02:33:00,55.1,52.2,29.89,West,271,0.0,0.0,90,0.00,-RA,,0.00,0.0,WeatherDisplay:10.37,2013-07-26 07:33:00,
2013-07-26 02:38:00,55.2,52.6,29.89,West,272,0.0,0.0,91,0.01,-RA,,0.01,0.0,WeatherDisplay:10.37,2013-07-26 07:38:00,
2013-07-26 02:43:00,55.2,52.6,29.89,West,272,0.0,0.0,91,0.02,-RA,,0.02,0.0,WeatherDisplay:10.37,2013-07-26 07:43:00,
2013-07-26 02:48:00,55.3,52.7,29.89,West,271,2.3,2.3,91,0.02,-RA,,0.02,0.0,WeatherDisplay:10.37,2013-07-26 07:48:00,
2013-07-26 02:53:00,55.3,52.7,29.89,West,271,0.0,0.0,91,0.03,-RA,,0.03,0.0,WeatherDisplay:10.37,2013-07-26 07:53:00,
2013-07-26 02:58:00,55.4,52.8,29.89,West,271,0.0,0.0,91,0.04,-RA,,0.05,0.0,WeatherDisplay:10.37,2013-07-26 07:58:00,
2013-07-26 03:03:00,55.4,53.1,29.89,West,271,0.0,0.0,92,0.07,-RA,,0.07,0.0,WeatherDisplay:10.37,2013-07-26 08:03:00,
2013-07-26 03:08:00,55.5,53.2,29.89,West,271,0.0,0.0,92,0.09,-RA,,0.10,0.0,WeatherDisplay:10.37,2013-07-26 08:08:00,
2013-07-26 03:13:00,55.5,53.2,29.89,West,271,0.0,0.0,92,0.11,-RA,,0.12,0.0,WeatherDisplay:10.37,2013-07-26 08:13:00,
2013-07-26 03:18:00,55.5,53.2,29.89,West,271,0.0,0.0,92,0.12,-RA,,0.12,0.0,WeatherDisplay:10.37,2013-07-26 08:18:00,
2013-07-26 03:23:00,55.5,53.2,29.90,West,271,0.0,0.0,92,0.14,-RA,,0.14,0.0,WeatherDisplay:10.37,2013-07-26 08:23:00,
2013-07-26 03:28:00,55.6,53.3,29.90,West,271,0.0,0.0,92,0.16,-RA,,0.16,0.0,WeatherDisplay:10.37,2013-07-26 08:28:00,
2013-07-26 03:33:00,55.6,53.3,29.90,West,273,3.5,3.5,92,0.17,-RA,,0.17,0.0,WeatherDisplay:10.37,2013-07-26 08:33:00,
2013-07-26 03:38:00,55.7,53.4,29.90,West,273,0.0,0.0,92,0.16,-RA,,0.17,0.0,WeatherDisplay:10.37,2013-07-26 08:38:00,
2013-07-26 03:43:00,55.7,53.4,29.90,West,273,0.0,0.0,92,0.15,-RA,,0.17,0.0,WeatherDisplay:10.37,2013-07-26 08:43:00,
2013-07-26 03:48:00,55.7,53.7,29.91,West,273,0.0,0.0,93,0.16,-RA,,0.18,0.0,WeatherDisplay:10.37,2013-07-26 08:48:00,
2013-07-26 03:53:00,55.8,53.8,29.91,West,273,0.0,0.0,93,0.15,-RA,,0.18,0.0,WeatherDisplay:10.37,2013-07-26 08:53:00,
2013-07-26 03:58:00,55.8,53.8,29.91,WNW,286,0.0,0.0,93,0.15,-RA,,0.19,0.0,WeatherDisplay:10.37,2013-07-26 08:58:00,
2013-07-26 04:03:00,55.8,53.8,29.91,NW,325,0.0,0.0,93,0.12,-RA,,0.19,0.0,WeatherDisplay:10.37,2013-07-26 09:03:00,
2013-07-26 04:08:00,55.8,53.8,29.91,NW,325,0.0,0.0,93,0.10,-RA,,0.19,0.0,WeatherDisplay:10.37,2013-07-26 09:08:00,
2013-07-26 04:13:00,55.9,53.9,29.91,NNW,329,0.0,0.0,93,0.08,-RA,,0.19,0.0,WeatherDisplay:10.37,2013-07-26 09:13:00,
2013-07-26 04:18:00,55.8,53.8,29.91,NNW,329,0.0,0.0,93,0.07,-RA,,0.19,0.0,WeatherDisplay:10.37,2013-07-26 09:18:00,
2013-07-26 04:23:00,55.8,53.8,29.91,NNW,329,0.0,0.0,93,0.05,-RA,,0.19,0.0,WeatherDisplay:10.37,2013-07-26 09:23:00,
2013-07-26 04:28:00,55.8,53.8,29.92,NNW,329,0.0,0.0,93,0.03,-RA,,0.19,0.0,WeatherDisplay:10.37,2013-07-26 09:28:00,
2013-07-26 04:33:00,55.8,53.8,29.92,NW,321,0.0,0.1,93,0.02,-RA,,0.19,0.0,WeatherDisplay:10.37,2013-07-26 09:33:00,
2013-07-26 04:38:00,55.8,53.8,29.92,NW,326,3.5,0.0,93,0.02,-RA,,0.19,0.0,WeatherDisplay:10.37,2013-07-26 09:38:00,
2013-07-26 04:43:00,55.8,53.8,29.92,NNW,329,0.0,0.0,93,0.02,-RA,,0.19,0.0,WeatherDisplay:10.37,2013-07-26 09:43:00,
2013-07-26 04:48:00,55.8,53.8,29.92,NNW,334,1.2,0.0,93,0.01,-RA,,0.19,0.0,WeatherDisplay:10.37,2013-07-26 09:48:00,
2013-07-26 04:53:00,55.8,53.8,29.92,NNW,334,1.2,1.2,93,0.01,-RA,,0.19,0.0,WeatherDisplay:10.37,2013-07-26 09:53:00,
2013-07-26 04:58:00,55.8,53.8,29.92,North,5,0.0,0.0,93,0.01,-RA,,0.20,0.0,WeatherDisplay:10.37,2013-07-26 09:58:00,
2013-07-26 05:03:00,55.7,53.7,29.93,North,355,0.0,0.0,93,0.01,-RA,,0.20,0.0,WeatherDisplay:10.37,2013-07-26 10:03:00,
2013-07-26 05:08:00,55.6,53.6,29.93,NNW,348,1.2,0.0,93,0.01,-RA,,0.20,0.0,WeatherDisplay:10.37,2013-07-26 10:08:00,
2013-07-26 05:13:00,55.5,53.5,29.93,NNW,335,2.3,2.3,93,0.01,-RA,,0.20,0.0,WeatherDisplay:10.37,2013-07-26 10:13:00,
2013-07-26 05:18:00,55.4,53.4,29.93,NW,313,3.5,3.5,93,0.01,-RA,,0.20,0.0,WeatherDisplay:10.37,2013-07-26 10:18:00,
2013-07-26 05:20:00,55.4,53.4,29.94,NW,304,2.3,2.3,93,0.01,-RA,,0.20,0.0,WeatherDisplay:10.37,2013-07-26 10:20:00,
2013-07-26 05:23:00,55.4,53.4,29.94,NW,304,2.3,2.3,93,0.01,-RA,,0.20,0.0,WeatherDisplay:10.37,2013-07-26 10:23:00,
2013-07-26 05:28:00,55.4,53.4,29.94,NW,304,2.3,2.3,93,0.01,-RA,,0.20,0.0,WeatherDisplay:10.37,2013-07-26 10:28:00,
2013-07-26 05:30:00,55.3,53.3,29.94,NNW,342,0.0,4.0,93,0.00,-RA,,0.25,0.0,WeatherDisplay:10.37,2013-07-26 10:30:00,
2013-07-26 05:40:00,55.0,52.7,29.94,NNW,338,1.0,3.0,92,0.00,-RA,,0.25,0.0,WeatherDisplay:10.37,2013-07-26 10:40:00,
2013-07-26 05:50:00,54.8,52.5,29.94,NW,304,0.0,5.0,92,0.00,-RA,,0.25,0.0,WeatherDisplay:10.37,2013-07-26 10:50:00,
2013-07-26 06:00:00,54.6,52.6,29.95,NW,310,0.0,3.0,93,0.01,-RA,,0.26,0.0,WeatherDisplay:10.37,2013-07-26 11:00:00,
2013-07-26 06:10:00,54.5,52.5,29.95,NNW,345,0.0,7.0,93,0.00,-RA,,0.26,7.0,WeatherDisplay:10.37,2013-07-26 11:10:00,
2013-07-26 06:19:00,55.4,53.4,29.94,NW,304,2.3,2.3,93,0.01,-RA,,0.20,0.0,WeatherDisplay:10.37,2013-07-26 11:19:00,
2013-07-26 06:20:00,54.4,52.4,29.96,NNE,17,0.0,5.0,93,0.00,-RA,,0.26,7.0,WeatherDisplay:10.37,2013-07-26 11:20:00,
2013-07-26 06:24:00,55.4,53.4,29.94,NW,304,2.3,2.3,93,0.01,-RA,,0.20,0.0,WeatherDisplay:10.37,2013-07-26 11:24:00,
2013-07-26 06:30:00,54.3,52.3,29.96,NW,313,0.0,5.0,93,0.00,-RA,,0.26,14.0,WeatherDisplay:10.37,2013-07-26 11:30:00,
2013-07-26 06:40:00,54.2,52.2,29.97,North,354,0.0,5.0,93,0.00,-RA,,0.26,25.0,WeatherDisplay:10.37,2013-07-26 11:40:00,
2013-07-26 06:50:00,54.2,51.9,29.97,North,360,0.0,5.0,92,0.00,-RA,,0.26,21.0,WeatherDisplay:10.37,2013-07-26 11:50:00,
2013-07-26 07:00:00,54.2,51.9,29.98,NW,315,0.0,4.0,92,0.00,-RA,,0.26,30.0,WeatherDisplay:10.37,2013-07-26 12:00:00,
2013-07-26 07:10:00,54.1,51.8,29.98,North,11,0.0,7.0,92,0.00,-RA,,0.26,28.0,WeatherDisplay:10.37,2013-07-26 12:10:00,
2013-07-26 07:30:00,54.1,51.8,29.99,NNE,18,0.0,4.0,92,0.00,-RA,,0.26,37.0,WeatherDisplay:10.37,2013-07-26 12:30:00,
2013-07-26 07:40:00,54.0,51.7,30.00,North,4,1.0,6.0,92,0.00,-RA,,0.26,63.0,WeatherDisplay:10.37,2013-07-26 12:40:00,
2013-07-26 07:50:00,54.0,51.7,30.01,NW,313,0.0,4.0,92,0.00,-RA,,0.26,35.0,WeatherDisplay:10.37,2013-07-26 12:50:00,
2013-07-26 08:00:00,53.9,51.6,30.01,NNE,14,0.0,6.0,92,0.01,-RA,,0.27,22.0,WeatherDisplay:10.37,2013-07-26 13:00:00,
2013-07-26 08:20:00,53.8,51.5,30.02,North,356,0.0,3.0,92,0.01,-RA,,0.29,51.0,WeatherDisplay:10.37,2013-07-26 13:20:00,
2013-07-26 08:30:00,53.9,51.6,30.03,North,351,0.0,3.0,92,0.00,-RA,,0.29,26.0,WeatherDisplay:10.37,2013-07-26 13:30:00,
2013-07-26 08:40:00,53.9,51.6,30.03,NNW,346,0.0,2.0,92,0.00,-RA,,0.29,60.0,WeatherDisplay:10.37,2013-07-26 13:40:00,
2013-07-26 08:50:00,54.0,52.0,30.04,North,353,0.0,5.0,93,0.01,-RA,,0.30,47.0,WeatherDisplay:10.37,2013-07-26 13:50:00,
2013-07-26 09:00:00,54.0,52.0,30.04,NNW,331,0.0,4.0,93,0.00,-RA,,0.30,53.0,WeatherDisplay:10.37,2013-07-26 14:00:00,
2013-07-26 09:08:00,54.1,52.1,30.04,North,355,1.2,1.2,93,0.02,-RA,,0.30,114.0,WeatherDisplay:10.37,2013-07-26 14:08:00,
2013-07-26 09:13:00,54.1,52.1,30.04,NW,321,0.0,0.0,93,0.02,-RA,,0.30,88.0,WeatherDisplay:10.37,2013-07-26 14:13:00,
2013-07-26 09:18:00,54.2,52.2,30.04,NNW,342,1.2,1.2,93,0.01,-RA,,0.30,76.0,WeatherDisplay:10.37,2013-07-26 14:18:00,
2013-07-26 09:23:00,54.2,52.2,30.05,NNW,338,1.2,1.2,93,0.01,-RA,,0.30,47.0,WeatherDisplay:10.37,2013-07-26 14:23:00,
2013-07-26 09:28:00,54.2,52.2,30.05,NNW,331,0.0,0.0,93,0.01,-RA,,0.30,35.0,WeatherDisplay:10.37,2013-07-26 14:28:00,
2013-07-26 09:33:00,54.2,52.2,30.05,NNW,330,0.0,0.0,93,0.01,-RA,,0.30,70.0,WeatherDisplay:10.37,2013-07-26 14:33:00,
2013-07-26 09:38:00,54.1,52.1,30.05,NW,325,3.5,0.0,93,0.01,-RA,,0.30,67.0,WeatherDisplay:10.37,2013-07-26 14:38:00,
2013-07-26 09:43:00,54.2,52.2,30.06,NW,325,0.0,0.0,93,0.01,-RA,,0.30,56.0,WeatherDisplay:10.37,2013-07-26 14:43:00,
2013-07-26 09:49:00,54.2,52.2,30.06,NW,325,0.0,0.0,93,0.01,-RA,,0.30,62.0,WeatherDisplay:10.37,2013-07-26 14:49:00,
2013-07-26 09:54:00,54.2,52.2,30.06,NW,323,1.0,0.0,93,0.01,-RA,,0.30,60.0,WeatherDisplay:10.37,2013-07-26 14:54:00,
2013-07-26 09:59:00,54.2,52.2,30.06,NW,319,0.0,0.0,93,0.00,-RA,,0.30,56.0,WeatherDisplay:10.37,2013-07-26 14:59:00,
2013-07-26 10:04:00,54.2,52.2,30.06,North,360,3.5,3.5,93,0.00,-RA,,0.30,47.0,WeatherDisplay:10.37,2013-07-26 15:04:00,
2013-07-26 10:09:00,54.1,51.8,30.06,NE,56,1.2,1.2,92,0.00,-RA,,0.30,114.0,WeatherDisplay:10.37,2013-07-26 15:09:00,
2013-07-26 10:14:00,54.1,51.8,30.06,WNW,300,4.0,4.0,92,0.00,-RA,,0.30,134.0,WeatherDisplay:10.37,2013-07-26 15:14:00,
2013-07-26 10:19:00,54.1,51.8,30.06,NNE,30,0.0,0.0,92,0.00,-RA,,0.30,109.0,WeatherDisplay:10.37,2013-07-26 15:19:00,
2013-07-26 10:24:00,54.2,51.9,30.07,North,9,1.2,1.2,92,0.00,-RA,,0.30,130.0,WeatherDisplay:10.37,2013-07-26 15:24:00,
2013-07-26 10:29:00,54.5,52.5,30.07,NNW,345,1.2,1.2,93,0.00,-RA,,0.30,120.0,WeatherDisplay:10.37,2013-07-26 15:29:00,
2013-07-26 10:34:00,54.6,52.3,30.07,NNW,340,0.0,0.0,92,0.00,-RA,,0.30,137.0,WeatherDisplay:10.37,2013-07-26 15:34:00,
2013-07-26 10:39:00,54.7,52.4,30.08,ENE,67,4.6,4.6,92,0.00,-RA,,0.30,162.0,WeatherDisplay:10.37,2013-07-26 15:39:00,
2013-07-26 10:44:00,54.7,52.1,30.08,NW,322,0.0,0.0,91,0.00,-RA,,0.30,148.0,WeatherDisplay:10.37,2013-07-26 15:44:00,
2013-07-26 10:49:00,54.9,52.3,30.08,NNW,336,0.0,0.0,91,0.00,-RA,,0.30,104.0,WeatherDisplay:10.37,2013-07-26 15:49:00,
2013-07-26 10:54:00,55.0,52.4,30.08,East,82,1.2,0.0,91,0.00,-RA,,0.30,174.0,WeatherDisplay:10.37,2013-07-26 15:54:00,
2013-07-26 10:59:00,55.0,52.1,30.08,NW,323,4.6,4.6,90,0.00,-RA,,0.30,90.0,WeatherDisplay:10.37,2013-07-26 15:59:00,
2013-07-26 11:04:00,55.0,52.1,30.09,NNE,32,0.0,0.0,90,0.00,-RA,,0.30,174.0,WeatherDisplay:10.37,2013-07-26 16:04:00,
2013-07-26 11:09:00,55.0,51.8,30.09,NW,322,3.0,3.0,89,0.00,-RA,,0.30,283.0,WeatherDisplay:10.37,2013-07-26 16:09:00,
2013-07-26 11:14:00,55.7,52.5,30.10,East,90,3.5,3.5,89,0.00,-RA,,0.30,352.0,WeatherDisplay:10.37,2013-07-26 16:14:00,
2013-07-26 11:19:00,55.9,52.1,30.09,NW,315,3.0,3.0,87,0.00,-RA,,0.30,278.0,WeatherDisplay:10.37,2013-07-26 16:19:00,
2013-07-26 11:24:00,56.4,52.6,30.10,NE,41,3.0,3.0,87,0.00,-RA,,0.30,352.0,WeatherDisplay:10.37,2013-07-26 16:24:00,
2013-07-26 11:29:00,56.8,53.0,30.10,West,266,1.2,1.2,87,0.00,-RA,,0.30,1021.0,WeatherDisplay:10.37,2013-07-26 16:29:00,
2013-07-26 11:34:00,57.4,51.9,30.10,NNW,329,3.5,3.5,82,0.00,-RA,,0.30,274.0,WeatherDisplay:10.37,2013-07-26 16:34:00,
2013-07-26 11:39:00,58.2,52.4,30.10,West,263,3.5,3.5,81,0.00,-RA,,0.30,1127.0,WeatherDisplay:10.37,2013-07-26 16:39:00,
2013-07-26 11:44:00,58.5,52.4,30.10,NW,317,2.3,2.3,80,0.00,-RA,,0.30,969.0,WeatherDisplay:10.37,2013-07-26 16:44:00,
2013-07-26 11:49:00,59.5,51.9,30.10,NNW,329,4.6,4.6,76,0.00,-RA,,0.30,951.0,WeatherDisplay:10.37,2013-07-26 16:49:00,
2013-07-26 11:54:00,59.6,52.4,30.10,NW,304,1.2,1.4,77,0.00,-RA,,0.30,234.0,WeatherDisplay:10.37,2013-07-26 16:54:00,
2013-07-26 11:59:00,58.7,51.2,30.10,WNW,295,3.5,3.5,76,0.00,-RA,,0.30,202.0,WeatherDisplay:10.37,2013-07-26 16:59:00,
2013-07-26 12:04:00,59.2,52.3,30.11,NNW,340,1.2,0.0,78,0.00,-RA,,0.30,988.0,WeatherDisplay:10.37,2013-07-26 17:04:00,
2013-07-26 12:09:00,60.1,52.1,30.11,WNW,298,4.6,4.6,75,0.00,-RA,,0.30,334.0,WeatherDisplay:10.37,2013-07-26 17:09:00,
2013-07-26 12:14:00,59.6,51.3,30.11,North,360,3.5,3.5,74,0.00,-RA,,0.30,346.0,WeatherDisplay:10.37,2013-07-26 17:14:00,
2013-07-26 12:19:00,59.6,52.7,30.12,North,350,1.2,1.2,78,0.00,-RA,,0.30,1056.0,WeatherDisplay:10.37,2013-07-26 17:19:00,
2013-07-26 12:24:00,60.8,51.3,30.11,East,92,1.2,0.0,71,0.00,-RA,,0.30,1088.0,WeatherDisplay:10.37,2013-07-26 17:24:00,
2013-07-26 12:29:00,61.5,52.4,30.11,West,271,3.5,3.5,72,0.00,-RA,,0.30,1093.0,WeatherDisplay:10.37,2013-07-26 17:29:00,
2013-07-26 12:34:00,61.8,51.5,30.11,WNW,286,3.5,3.5,69,0.00,-RA,,0.30,988.0,WeatherDisplay:10.37,2013-07-26 17:34:00,
2013-07-26 12:39:00,61.7,51.0,30.12,NW,315,5.8,5.8,68,0.00,-RA,,0.30,1213.0,WeatherDisplay:10.37,2013-07-26 17:39:00,
2013-07-26 12:44:00,60.8,51.0,30.12,SW,236,0.0,0.0,70,0.00,-RA,,0.30,415.0,WeatherDisplay:10.37,2013-07-26 17:44:00,
2013-07-26 12:49:00,61.5,51.2,30.12,North,5,3.5,3.5,69,0.00,-RA,,0.30,1378.0,WeatherDisplay:10.37,2013-07-26 17:49:00,
2013-07-26 12:54:00,60.7,51.2,30.12,WNW,302,1.2,1.2,71,0.00,-RA,,0.30,362.0,WeatherDisplay:10.37,2013-07-26 17:54:00,
2013-07-26 12:59:00,60.5,50.7,30.12,NW,325,8.1,8.1,70,0.00,-RA,,0.30,469.0,WeatherDisplay:10.37,2013-07-26 17:59:00,
2013-07-26 13:04:00,60.8,49.8,30.11,NW,318,4.6,4.6,67,0.00,-RA,,0.30,381.0,WeatherDisplay:10.37,2013-07-26 18:04:00,
2013-07-26 13:09:00,61.4,49.1,30.11,NNW,333,5.0,5.0,64,0.00,-RA,,0.30,1141.0,WeatherDisplay:10.37,2013-07-26 18:09:00,
2013-07-26 13:14:00,61.4,49.5,30.11,North,350,3.5,3.5,65,0.00,-RA,,0.30,469.0,WeatherDisplay:10.37,2013-07-26 18:14:00,
2013-07-26 13:19:00,62.1,49.4,30.11,WNW,297,3.5,3.5,63,0.00,-RA,,0.30,979.0,WeatherDisplay:10.37,2013-07-26 18:19:00,
2013-07-26 13:24:00,61.3,50.6,30.11,NNE,22,0.0,0.0,68,0.00,-RA,,0.30,336.0,WeatherDisplay:10.37,2013-07-26 18:24:00,
2013-07-26 13:29:00,60.3,50.1,30.11,North,360,1.2,0.0,69,0.00,-RA,,0.30,359.0,WeatherDisplay:10.37,2013-07-26 18:29:00,
2013-07-26 13:34:00,60.3,49.3,30.11,North,360,1.2,0.0,67,0.00,-RA,,0.30,663.0,WeatherDisplay:10.37,2013-07-26 18:34:00,
2013-07-26 13:39:00,60.7,49.7,30.11,North,350,2.3,2.3,67,0.00,-RA,,0.30,251.0,WeatherDisplay:10.37,2013-07-26 18:39:00,
2013-07-26 13:44:00,61.5,50.4,30.11,WNW,287,3.5,3.5,67,0.00,-RA,,0.30,1000.0,WeatherDisplay:10.37,2013-07-26 18:44:00,
2013-07-26 13:49:00,62.5,48.4,30.11,South,180,1.2,1.2,60,0.00,-RA,,0.30,1062.0,WeatherDisplay:10.37,2013-07-26 18:49:00,
2013-07-26 13:54:00,62.9,48.3,30.11,SSE,161,3.5,3.5,59,0.00,-RA,,0.30,1164.0,WeatherDisplay:10.37,2013-07-26 18:54:00,
2013-07-26 13:59:00,62.5,49.7,30.10,NW,319,0.0,0.0,63,0.00,-RA,,0.30,246.0,WeatherDisplay:10.37,2013-07-26 18:59:00,
2013-07-26 14:04:00,63.0,48.4,30.10,North,349,6.9,6.9,59,0.00,-RA,,0.30,608.0,WeatherDisplay:10.37,2013-07-26 19:04:00,
2013-07-26 14:09:00,62.0,48.4,30.10,NW,307,3.5,3.5,61,0.00,-RA,,0.30,341.0,WeatherDisplay:10.37,2013-07-26 19:09:00,
2013-07-26 14:14:00,60.6,47.9,30.11,ENE,70,4.6,4.6,63,0.00,-RA,,0.30,244.0,WeatherDisplay:10.37,2013-07-26 19:14:00,
2013-07-26 14:19:00,59.7,48.3,30.11,NNW,333,4.6,4.6,66,0.00,-RA,,0.30,304.0,WeatherDisplay:10.37,2013-07-26 19:19:00,
2013-07-26 14:24:00,59.6,49.8,30.11,NW,325,1.2,1.2,70,0.00,-RA,,0.30,566.0,WeatherDisplay:10.37,2013-07-26 19:24:00,
2013-07-26 14:29:00,61.2,49.3,30.11,WNW,292,4.6,4.6,65,0.00,-RA,,0.30,513.0,WeatherDisplay:10.37,2013-07-26 19:29:00,
2013-07-26 14:34:00,61.2,50.9,30.11,NNE,18,4.0,4.0,69,0.00,-RA,,0.30,330.0,WeatherDisplay:10.37,2013-07-26 19:34:00,
2013-07-26 14:39:00,60.5,48.3,30.11,WNW,288,3.5,3.5,64,0.00,-RA,,0.30,366.0,WeatherDisplay:10.37,2013-07-26 19:39:00,
2013-07-26 14:44:00,60.4,48.6,30.11,NW,319,5.8,5.8,65,0.00,-RA,,0.30,578.0,WeatherDisplay:10.37,2013-07-26 19:44:00,
2013-07-26 14:49:00,61.1,50.5,30.11,East,84,1.2,0.0,68,0.00,-RA,,0.30,584.0,WeatherDisplay:10.37,2013-07-26 19:49:00,
2013-07-26 14:54:00,61.4,49.1,30.11,NW,321,4.6,4.6,64,0.00,-RA,,0.30,330.0,WeatherDisplay:10.37,2013-07-26 19:54:00,
2013-07-26 14:59:00,60.9,48.6,30.12,NNE,32,2.3,2.3,64,0.00,-RA,,0.30,315.0,WeatherDisplay:10.37,2013-07-26 19:59:00,
2013-07-26 15:04:00,61.8,48.2,30.12,NNW,338,3.5,3.5,61,0.00,-RA,,0.30,315.0,WeatherDisplay:10.37,2013-07-26 20:04:00,
2013-07-26 15:09:00,61.2,48.1,30.12,NW,307,3.5,3.5,62,0.00,-RA,,0.30,146.0,WeatherDisplay:10.37,2013-07-26 20:09:00,
2013-07-26 15:14:00,60.2,48.8,30.13,East,92,1.2,1.2,66,0.00,-RA,,0.30,172.0,WeatherDisplay:10.37,2013-07-26 20:14:00,
2013-07-26 15:19:00,59.5,50.8,30.13,NW,313,0.0,0.0,73,0.00,-RA,,0.30,308.0,WeatherDisplay:10.37,2013-07-26 20:19:00,
2013-07-26 15:24:00,59.4,48.8,30.13,ENE,61,0.0,0.0,68,0.00,-RA,,0.30,176.0,WeatherDisplay:10.37,2013-07-26 20:24:00,
2013-07-26 15:29:00,59.0,48.1,30.13,North,360,5.0,5.0,67,0.00,-RA,,0.30,230.0,WeatherDisplay:10.37,2013-07-26 20:29:00,
2013-07-26 15:34:00,59.0,48.4,30.13,NNW,333,3.5,3.5,68,0.00,-RA,,0.30,283.0,WeatherDisplay:10.37,2013-07-26 20:34:00,
2013-07-26 15:39:00,59.3,47.9,30.13,NNW,333,0.0,0.1,66,0.00,-RA,,0.30,334.0,WeatherDisplay:10.37,2013-07-26 20:39:00,
2013-07-26 15:44:00,59.5,49.3,30.13,WNW,298,2.3,0.0,69,0.00,-RA,,0.30,345.0,WeatherDisplay:10.37,2013-07-26 20:44:00,
2013-07-26 15:49:00,59.5,48.5,30.14,NNW,342,3.5,3.5,67,0.00,-RA,,0.30,232.0,WeatherDisplay:10.37,2013-07-26 20:49:00,
2013-07-26 15:54:00,59.0,48.4,30.14,North,360,0.0,0.0,68,0.00,-RA,,0.30,202.0,WeatherDisplay:10.37,2013-07-26 20:54:00,
2013-07-26 15:59:00,59.0,48.8,30.14,NNW,348,1.2,0.0,69,0.00,-RA,,0.30,192.0,WeatherDisplay:10.37,2013-07-26 20:59:00,
2013-07-26 16:04:00,58.8,49.0,30.14,North,360,0.0,0.0,70,0.00,-RA,,0.30,174.0,WeatherDisplay:10.37,2013-07-26 21:04:00,
2013-07-26 16:09:00,58.5,48.7,30.14,North,360,2.3,0.0,70,0.00,-RA,,0.30,160.0,WeatherDisplay:10.37,2013-07-26 21:09:00,
2013-07-26 16:14:00,58.2,48.5,30.14,North,360,0.0,0.0,70,0.00,-RA,,0.30,174.0,WeatherDisplay:10.37,2013-07-26 21:14:00,
2013-07-26 16:19:00,58.1,48.4,30.14,North,360,4.6,4.6,70,0.00,-RA,,0.30,190.0,WeatherDisplay:10.37,2013-07-26 21:19:00,
2013-07-26 16:24:00,58.0,48.3,30.14,NNW,338,0.0,0.0,70,0.00,-RA,,0.30,202.0,WeatherDisplay:10.37,2013-07-26 21:24:00,
2013-07-26 16:29:00,58.2,48.1,30.14,NNE,12,3.5,3.5,69,0.00,-RA,,0.30,246.0,WeatherDisplay:10.37,2013-07-26 21:29:00,
2013-07-26 16:34:00,58.5,48.4,30.15,NW,309,0.0,0.0,69,0.00,-RA,,0.30,295.0,WeatherDisplay:10.37,2013-07-26 21:34:00,
2013-07-26 16:39:00,59.1,50.1,30.15,NNW,329,0.0,0.2,72,0.00,-RA,,0.30,914.0,WeatherDisplay:10.37,2013-07-26 21:39:00,
2013-07-26 16:44:00,59.8,49.2,30.15,NW,313,3.5,3.5,68,0.00,-RA,,0.30,223.0,WeatherDisplay:10.37,2013-07-26 21:44:00,
2013-07-26 16:49:00,59.0,48.1,30.15,North,360,3.0,0.0,67,0.00,-RA,,0.30,135.0,WeatherDisplay:10.37,2013-07-26 21:49:00,
2013-07-26 16:54:00,58.4,46.7,30.14,NNE,25,3.5,0.0,65,0.00,-RA,,0.30,121.0,WeatherDisplay:10.37,2013-07-26 21:54:00,
2013-07-26 16:59:00,57.8,47.3,30.14,NNE,24,1.2,0.0,68,0.00,-RA,,0.30,195.0,WeatherDisplay:10.37,2013-07-26 21:59:00,
2013-07-26 17:04:00,57.8,47.3,30.14,North,349,0.0,0.0,68,0.00,-RA,,0.30,239.0,WeatherDisplay:10.37,2013-07-26 22:04:00,
2013-07-26 17:09:00,58.1,47.6,30.15,NNE,23,0.0,0.0,68,0.00,-RA,,0.30,255.0,WeatherDisplay:10.37,2013-07-26 22:09:00,
2013-07-26 17:14:00,58.3,47.8,30.14,NNW,333,0.0,0.1,68,0.00,-RA,,0.30,227.0,WeatherDisplay:10.37,2013-07-26 22:14:00,
2013-07-26 17:19:00,58.4,47.9,30.14,NNW,344,0.0,0.0,68,0.00,-RA,,0.30,199.0,WeatherDisplay:10.37,2013-07-26 22:19:00,
2013-07-26 17:24:00,58.2,48.5,30.15,NE,55,0.0,0.0,70,0.00,-RA,,0.30,186.0,WeatherDisplay:10.37,2013-07-26 22:24:00,
2013-07-26 17:29:00,58.0,49.0,30.15,ENE,64,0.0,0.0,72,0.00,-RA,,0.30,149.0,WeatherDisplay:10.37,2013-07-26 22:29:00,
2013-07-26 17:34:00,57.8,48.1,30.15,NNW,338,2.3,0.0,70,0.00,-RA,,0.30,107.0,WeatherDisplay:10.37,2013-07-26 22:34:00,
2013-07-26 17:39:00,57.5,47.8,30.15,NNE,26,3.0,3.0,70,0.00,-RA,,0.30,195.0,WeatherDisplay:10.37,2013-07-26 22:39:00,
2013-07-26 17:44:00,57.3,47.6,30.15,SE,129,1.2,1.2,70,0.00,-RA,,0.30,218.0,WeatherDisplay:10.37,2013-07-26 22:44:00,
2013-07-26 17:49:00,57.2,47.1,30.15,ESE,102,0.0,0.0,69,0.00,-RA,,0.30,193.0,WeatherDisplay:10.37,2013-07-26 22:49:00,
2013-07-26 17:54:00,57.2,48.3,30.15,East,98,0.0,0.0,72,0.00,-RA,,0.30,118.0,WeatherDisplay:10.37,2013-07-26 22:54:00,
2013-07-26 17:59:00,56.8,46.7,30.14,ENE,73,0.0,0.0,69,0.00,-RA,,0.30,165.0,WeatherDisplay:10.37,2013-07-26 22:59:00,
2013-07-26 18:04:00,56.7,47.4,30.14,ENE,69,0.0,0.0,71,0.00,-RA,,0.30,181.0,WeatherDisplay:10.37,2013-07-26 23:04:00,
2013-07-26 18:10:00,56.7,47.8,30.14,ENE,78,0.0,0.0,72,0.00,-RA,,0.30,188.0,WeatherDisplay:10.37,2013-07-26 23:10:00,
2013-07-26 18:15:00,56.7,47.8,30.14,ENE,78,0.0,0.0,72,0.00,-RA,,0.30,204.0,WeatherDisplay:10.37,2013-07-26 23:15:00,
2013-07-26 18:20:00,56.9,48.3,30.14,North,355,0.0,0.0,73,0.00,-RA,,0.30,179.0,WeatherDisplay:10.37,2013-07-26 23:20:00,
2013-07-26 18:25:00,56.9,48.0,30.14,East,80,0.0,0.0,72,0.00,-RA,,0.30,114.0,WeatherDisplay:10.37,2013-07-26 23:25:00,
2013-07-26 18:30:00,56.7,47.8,30.14,East,79,0.0,0.0,72,0.00,-RA,,0.30,188.0,WeatherDisplay:10.37,2013-07-26 23:30:00,
2013-07-26 18:35:00,57.4,48.4,30.14,East,79,0.0,0.0,72,0.00,-RA,,0.30,234.0,WeatherDisplay:10.37,2013-07-26 23:35:00,
2013-07-26 18:40:00,57.5,47.4,30.14,East,94,0.0,0.0,69,0.00,-RA,,0.30,111.0,WeatherDisplay:10.37,2013-07-26 23:40:00,
2013-07-26 18:45:00,57.2,48.3,30.15,NNW,342,0.0,0.0,72,0.00,-RA,,0.30,137.0,WeatherDisplay:10.37,2013-07-26 23:45:00,
2013-07-26 18:50:00,56.8,47.1,30.14,ENE,59,0.0,0.0,70,0.00,-RA,,0.30,128.0,WeatherDisplay:10.37,2013-07-26 23:50:00,
2013-07-26 18:55:00,56.6,46.5,30.15,East,92,1.2,1.2,69,0.00,-RA,,0.30,128.0,WeatherDisplay:10.37,2013-07-26 23:55:00,
2013-07-26 19:00:00,56.4,47.5,30.15,ENE,77,0.0,0.0,72,0.00,-RA,,0.30,125.0,WeatherDisplay:10.37,2013-07-27 00:00:00,
2013-07-26 19:05:00,56.2,48.0,30.15,ENE,76,0.0,0.0,74,0.00,-RA,,0.30,120.0,WeatherDisplay:10.37,2013-07-27 00:05:00,
2013-07-26 19:10:00,56.0,47.1,30.15,ENE,75,0.0,0.0,72,0.00,-RA,,0.30,100.0,WeatherDisplay:10.37,2013-07-27 00:10:00,
2013-07-26 19:15:00,56.0,48.2,30.15,ENE,75,0.0,0.0,75,0.00,-RA,,0.30,102.0,WeatherDisplay:10.37,2013-07-27 00:15:00,
2013-07-26 19:20:00,56.0,48.2,30.15,ENE,76,0.0,0.0,75,0.00,-RA,,0.30,67.0,WeatherDisplay:10.37,2013-07-27 00:20:00,
2013-07-26 19:25:00,56.0,47.8,30.15,ENE,75,0.0,0.0,74,0.00,-RA,,0.30,56.0,WeatherDisplay:10.37,2013-07-27 00:25:00,
2013-07-26 19:30:00,56.0,47.8,30.15,ENE,76,0.0,0.0,74,0.00,-RA,,0.30,65.0,WeatherDisplay:10.37,2013-07-27 00:30:00,
2013-07-26 19:35:00,56.1,47.6,30.15,ENE,76,0.0,0.0,73,0.00,-RA,,0.30,42.0,WeatherDisplay:10.37,2013-07-27 00:35:00,
2013-07-26 19:40:00,56.1,47.6,30.15,ENE,76,0.0,0.0,73,0.00,-RA,,0.30,39.0,WeatherDisplay:10.37,2013-07-27 00:40:00,
2013-07-26 19:45:00,56.0,47.5,30.15,ENE,76,0.0,0.0,73,0.00,-RA,,0.30,39.0,WeatherDisplay:10.37,2013-07-27 00:45:00,
2013-07-26 19:50:00,56.0,47.5,30.15,ENE,68,0.0,0.0,73,0.00,-RA,,0.30,35.0,WeatherDisplay:10.37,2013-07-27 00:50:00,
2013-07-26 19:55:00,55.9,47.4,30.15,ENE,69,0.0,0.0,73,0.00,-RA,,0.30,53.0,WeatherDisplay:10.37,2013-07-27 00:55:00,
2013-07-26 20:00:00,55.9,47.4,30.15,ENE,64,0.0,0.0,73,0.00,-RA,,0.30,46.0,WeatherDisplay:10.37,2013-07-27 01:00:00,
2013-07-26 20:05:00,55.8,47.3,30.15,ENE,60,0.0,0.0,73,0.00,-RA,,0.30,40.0,WeatherDisplay:10.37,2013-07-27 01:05:00,
2013-07-26 20:10:00,55.7,47.2,30.15,ENE,61,0.0,0.0,73,0.00,-RA,,0.30,37.0,WeatherDisplay:10.37,2013-07-27 01:10:00,
2013-07-26 20:15:00,55.5,46.6,30.15,NW,319,0.0,0.0,72,0.00,-RA,,0.30,33.0,WeatherDisplay:10.37,2013-07-27 01:15:00,
2013-07-26 20:20:00,55.3,46.4,30.15,ENE,67,1.2,1.2,72,0.00,-RA,,0.30,33.0,WeatherDisplay:10.37,2013-07-27 01:20:00,
2013-07-26 20:25:00,55.1,46.2,30.16,ENE,67,0.0,0.0,72,0.00,-RA,,0.30,30.0,WeatherDisplay:10.37,2013-07-27 01:25:00,
2013-07-26 20:30:00,55.0,46.1,30.16,WNW,300,3.5,3.5,72,0.00,-RA,,0.30,21.0,WeatherDisplay:10.37,2013-07-27 01:30:00,
2013-07-26 20:35:00,54.8,46.3,30.16,WNW,300,0.0,0.0,73,0.00,-RA,,0.30,18.0,WeatherDisplay:10.37,2013-07-27 01:35:00,
2013-07-26 20:40:00,54.6,46.5,30.15,WNW,300,0.0,0.0,74,0.00,-RA,,0.30,12.0,WeatherDisplay:10.37,2013-07-27 01:40:00,
2013-07-26 20:45:00,54.5,46.4,30.16,WNW,300,0.0,0.0,74,0.00,-RA,,0.30,9.0,WeatherDisplay:10.37,2013-07-27 01:45:00,
2013-07-26 20:50:00,54.3,46.2,30.16,WNW,300,0.0,0.0,74,0.00,-RA,,0.30,5.0,WeatherDisplay:10.37,2013-07-27 01:50:00,
2013-07-26 20:55:00,54.2,46.8,30.16,WNW,300,0.0,0.0,76,0.00,-RA,,0.30,0.0,WeatherDisplay:10.37,2013-07-27 01:55:00,
2013-07-26 21:00:00,54.0,46.3,30.16,ENE,76,0.0,0.0,75,0.00,-RA,,0.30,0.0,WeatherDisplay:10.37,2013-07-27 02:00:00,
2013-07-26 21:05:00,53.8,46.1,30.16,NNE,15,0.0,0.0,75,0.00,-RA,,0.30,0.0,WeatherDisplay:10.37,2013-07-27 02:05:00,
2013-07-26 21:10:00,53.6,46.2,30.16,NNE,16,0.0,0.0,76,0.00,-RA,,0.30,0.0,WeatherDisplay:10.37,2013-07-27 02:10:00,
2013-07-26 21:15:00,53.4,45.7,30.16,NNE,16,0.0,0.0,75,0.00,-RA,,0.30,0.0,WeatherDisplay:10.37,2013-07-27 02:15:00,
2013-07-26 21:20:00,53.3,45.6,30.16,NNE,16,0.0,0.0,75,0.00,-RA,,0.30,0.0,WeatherDisplay:10.37,2013-07-27 02:20:00,
2013-07-26 21:25:00,53.1,45.7,30.16,NNE,16,0.0,0.0,76,0.00,-RA,,0.30,0.0,WeatherDisplay:10.37,2013-07-27 02:25:00,
2013-07-26 21:30:00,52.9,45.5,30.16,NNE,16,0.0,0.0,76,0.00,-RA,,0.30,0.0,WeatherDisplay:10.37,2013-07-27 02:30:00,
2013-07-26 21:35:00,52.8,45.4,30.16,NNE,16,0.0,0.0,76,0.00,-RA,,0.30,0.0,WeatherDisplay:10.37,2013-07-27 02:35:00,
2013-07-26 21:40:00,52.6,45.2,30.16,NNE,14,0.0,0.0,76,0.00,-RA,,0.30,0.0,WeatherDisplay:10.37,2013-07-27 02:40:00,
2013-07-26 21:45:00,52.4,45.1,30.16,NNE,14,0.0,0.0,76,0.00,-RA,,0.30,0.0,WeatherDisplay:10.37,2013-07-27 02:45:00,
2013-07-26 21:50:00,52.2,45.2,30.16,NNE,14,0.0,0.0,77,0.00,-RA,,0.30,0.0,WeatherDisplay:10.37,2013-07-27 02:50:00,
2013-07-26 21:55:00,52.0,44.7,30.15,NNE,26,0.0,0.0,76,0.00,-RA,,0.30,0.0,WeatherDisplay:10.37,2013-07-27 02:55:00,
2013-07-26 22:00:00,51.8,44.8,30.15,NNE,26,0.0,0.0,77,0.00,-RA,,0.30,0.0,WeatherDisplay:10.37,2013-07-27 03:00:00,
2013-07-26 22:05:00,51.6,45.0,30.15,NNE,26,0.0,0.0,78,0.00,-RA,,0.30,0.0,WeatherDisplay:10.37,2013-07-27 03:05:00,
2013-07-26 22:10:00,51.5,44.9,30.15,NNE,26,0.0,0.0,78,0.00,-RA,,0.30,0.0,WeatherDisplay:10.37,2013-07-27 03:10:00,
2013-07-26 22:15:00,51.4,44.8,30.15,NNE,26,0.0,0.0,78,0.00,-RA,,0.30,0.0,WeatherDisplay:10.37,2013-07-27 03:15:00,
2013-07-26 22:20:00,51.3,45.0,30.16,NNE,22,0.0,0.0,79,0.00,-RA,,0.30,0.0,WeatherDisplay:10.37,2013-07-27 03:20:00,
2013-07-26 22:25:00,51.3,45.0,30.15,NNE,22,0.0,0.0,79,0.00,-RA,,0.30,0.0,WeatherDisplay:10.37,2013-07-27 03:25:00,
2013-07-26 22:30:00,51.3,45.0,30.15,NNE,22,0.0,0.0,79,0.00,-RA,,0.30,0.0,WeatherDisplay:10.37,2013-07-27 03:30:00,
2013-07-26 22:35:00,51.3,45.0,30.15,NNE,23,0.0,0.0,79,0.00,-RA,,0.30,0.0,WeatherDisplay:10.37,2013-07-27 03:35:00,
2013-07-26 22:40:00,51.3,45.3,30.15,NNE,23,0.0,0.0,80,0.00,-RA,,0.30,0.0,WeatherDisplay:10.37,2013-07-27 03:40:00,
2013-07-26 22:45:00,51.3,45.3,30.15,NNE,22,0.0,0.0,80,0.00,-RA,,0.30,0.0,WeatherDisplay:10.37,2013-07-27 03:45:00,
2013-07-26 22:50:00,51.2,45.2,30.15,NNE,19,0.0,0.0,80,0.00,-RA,,0.30,0.0,WeatherDisplay:10.37,2013-07-27 03:50:00,
2013-07-26 22:55:00,51.2,45.2,30.15,NNE,19,0.0,0.0,80,0.00,-RA,,0.30,0.0,WeatherDisplay:10.37,2013-07-27 03:55:00,
2013-07-26 23:00:00,51.2,45.2,30.15,NNE,19,0.0,0.0,80,0.00,-RA,,0.30,0.0,WeatherDisplay:10.37,2013-07-27 04:00:00,
2013-07-26 23:01:00,51.2,44.9,30.15,NNE,19,0.0,0.0,79,0.00,-RA,,0.30,0.0,WeatherDisplay:10.37,2013-07-27 04:01:00,
2013-07-26 23:02:00,51.2,45.2,30.15,NNE,20,0.0,0.0,80,0.00,-RA,,0.30,0.0,WeatherDisplay:10.37,2013-07-27 04:02:00,
2013-07-26 23:07:00,51.2,45.2,30.15,NNE,20,0.0,0.0,80,0.00,-RA,,0.30,0.0,WeatherDisplay:10.37,2013-07-27 04:07:00,
2013-07-26 23:12:00,51.1,45.1,30.15,NNE,20,0.0,0.0,80,0.00,-RA,,0.30,0.0,WeatherDisplay:10.37,2013-07-27 04:12:00,
2013-07-26 23:17:00,51.0,45.0,30.15,NNE,20,0.0,0.0,80,0.00,-RA,,0.30,0.0,WeatherDisplay:10.37,2013-07-27 04:17:00,
2013-07-26 23:22:00,50.9,44.9,30.15,NNE,19,0.0,0.0,80,0.00,-RA,,0.30,0.0,WeatherDisplay:10.37,2013-07-27 04:22:00,
2013-07-26 23:27:00,50.8,44.9,30.15,NNE,20,0.0,0.0,80,0.00,-RA,,0.30,0.0,WeatherDisplay:10.37,2013-07-27 04:27:00,
2013-07-26 23:32:00,50.7,44.8,30.15,NNE,20,0.0,0.0,80,0.00,-RA,,0.30,0.0,WeatherDisplay:10.37,2013-07-27 04:32:00,
2013-07-26 23:37:00,50.5,44.6,30.15,NNE,19,0.0,0.0,80,0.00,-RA,,0.30,0.0,WeatherDisplay:10.37,2013-07-27 04:37:00,
2013-07-26 23:42:00,50.3,44.4,30.15,NNE,20,0.0,0.0,80,0.00,-RA,,0.30,0.0,WeatherDisplay:10.37,2013-07-27 04:42:00,
2013-07-26 23:47:00,50.1,44.2,30.15,NNE,20,0.0,0.0,80,0.00,-RA,,0.30,0.0,WeatherDisplay:10.37,2013-07-27 04:47:00,
2013-07-26 23:52:00,49.8,44.2,30.15,NNE,19,0.0,0.0,81,0.00,-RA,,0.30,0.0,WeatherDisplay:10.37,2013-07-27 04:52:00,
2013-07-26 23:57:00,49.5,43.9,30.14,NNE,19,0.0,0.0,81,0.00,-RA,,0.30,0.0,WeatherDisplay:10.37,2013-07-27 04:57:00,